Hourly Data Report for December 24, 2016

TORONTO CITY
ONTARIO

43°40'00.000" N
79°24'00.000" W
112.50 m
6158355
71508
XTO

Download Data

Hourly Data (December 2016)
Hourly Data Report for December 24, 2016
TIME
LST
Temp Definition
°C
Dew Point Definition
°C
Rel Hum Definition
%
Precip. Amount Definition
mm

Wind Dir Definition
10's deg

Wind Spd Definition
km/h
Visibility Definition
km
Stn Press Definition
kPa
Hmdx Definition


Wind Chill Definition


Weather Definition


00:00 3.2 -0.8 75 0.0 LegendMM LegendMM   100.50     LegendNANA
01:00 3.6 -1.1 71 0.0 LegendMM LegendMM   100.39     LegendNANA
02:00 2.3 -1.8 75 0.4 LegendMM LegendMM   100.23     LegendNANA
03:00 2.0 0.0 87 0.5 LegendMM LegendMM   100.24     LegendNANA
04:00 1.9 0.5 90 1.0 LegendMM LegendMM   100.08     LegendNANA
05:00 2.3 0.6 89 0.8 LegendMM LegendMM   99.91     LegendNANA
06:00 2.8 1.5 91 0.5 LegendMM LegendMM   99.92     LegendNANA
07:00 2.8 1.8 93 0.6 LegendMM LegendMM   99.96     LegendNANA
08:00 2.5 1.4 92 0.2 LegendMM LegendMM   100.02     LegendNANA
09:00 2.7 0.8 88 0.0 LegendMM LegendMM   100.18     LegendNANA
10:00 2.9 0.6 85 0.0 LegendMM LegendMM   100.32     LegendNANA
11:00 3.5 0.8 83 0.0 LegendMM LegendMM   100.39     LegendNANA
12:00 4.3 0.8 78 0.0 LegendMM LegendMM   100.42     LegendNANA
13:00 4.6 0.7 76 0.0 LegendMM LegendMM   100.51     LegendNANA
14:00 4.4 0.7 77 0.0 LegendMM LegendMM   100.61     LegendNANA
15:00 4.2 0.6 77 0.0 LegendMM LegendMM   100.69     LegendNANA
16:00 4.0 0.2 76 0.0 LegendMM LegendMM   100.76     LegendNANA
17:00 3.9 0.1 76 0.0 LegendMM LegendMM   100.86     LegendNANA
18:00 3.9 0.2 77 0.0 LegendMM LegendMM   101.00     LegendNANA
19:00 3.8 -0.1 76 0.0 LegendMM LegendMM   101.08     LegendNANA
20:00 3.7 -0.3 75 0.0 LegendMM LegendMM   101.19     LegendNANA
21:00 3.7 -0.4 75 0.0 LegendMM LegendMM   101.26     LegendNANA
22:00 3.6 -0.2 76 0.0 LegendMM LegendMM   101.34     LegendNANA
23:00 3.6 -0.1 76 0.0 LegendMM LegendMM   101.36     LegendNANA

Notes on Data Quality.

Legend

  • E = Estimated
  • M = Missing
  • NA = Not Available*
  • [empty] = Indicates an unobserved value
Date modified: